N80CF KVNY-CYVR

Flight info

Callsign N80CF
Flight time 1h 43m
Altitude 43000
Route WLKKR5 CSTRO DCT GENNE DCT HARTT J5 SUMMA DCT PAE GRIZZ8
Aircraft C700/M-SBDGHM1RWXY/LB2

Departure

Time 2026-05-04 19:28
Airport Van Nuys Airport (KVNY)

Arrival

Time 2026-05-04 21:11
Airport Vancouver International Airport (CYVR)
Time Latitude Longitude Altitude Speed Heading
2026-05-04 19:14 34.21817 -118.49297 802 ft 0 kts 120°
2026-05-04 19:24 34.21816 -118.49291 802 ft 4 kts 100°
2026-05-04 19:24 34.21814 -118.49245 801 ft 5 kts 51°
2026-05-04 19:25 34.21845 -118.49235 802 ft 5 kts
2026-05-04 19:25 34.21868 -118.49220 803 ft 4 kts 46°
2026-05-04 19:25 34.21870 -118.49214 803 ft 0 kts 66°
2026-05-04 19:27 34.21879 -118.49187 803 ft 9 kts 78°
2026-05-04 19:27 34.21837 -118.49121 802 ft 14 kts 167°
2026-05-04 19:27 34.21568 -118.49095 793 ft 79 kts 175°
2026-05-04 19:27 34.20748 -118.49043 942 ft 145 kts 175°
2026-05-04 19:28 34.19662 -118.48963 1650 ft 162 kts 176°
2026-05-04 19:28 34.18532 -118.48809 2483 ft 168 kts 181°
2026-05-04 19:28 34.17410 -118.49278 3218 ft 177 kts 216°
2026-05-04 19:28 34.16449 -118.50202 4015 ft 176 kts 226°
2026-05-04 19:29 34.15729 -118.51361 4750 ft 174 kts 251°
2026-05-04 19:29 34.15598 -118.52878 5382 ft 188 kts 275°
2026-05-04 19:29 34.15922 -118.54399 6375 ft 191 kts 293°
2026-05-04 19:29 34.16901 -118.55535 7370 ft 208 kts 335°
2026-05-04 19:30 34.18298 -118.55884 8797 ft 204 kts 345°
2026-05-04 19:30 34.19681 -118.56283 9907 ft 209 kts 336°
2026-05-04 19:30 34.21139 -118.56946 10554 ft 231 kts 330°
2026-05-04 19:30 34.22565 -118.57731 12033 ft 224 kts 329°
2026-05-04 19:31 34.24039 -118.58505 13084 ft 239 kts 332°
2026-05-04 19:31 34.25641 -118.59231 14118 ft 249 kts 335°
2026-05-04 19:31 34.27257 -118.59929 15308 ft 245 kts 332°
2026-05-04 19:31 34.28862 -118.60719 16254 ft 254 kts 329°
2026-05-04 19:32 34.30520 -118.61550 17250 ft 259 kts 328°
2026-05-04 19:32 34.32193 -118.62408 18251 ft 265 kts 328°
2026-05-04 19:32 34.33929 -118.63248 19072 ft 273 kts 329°
2026-05-04 19:32 34.35692 -118.64049 19952 ft 272 kts 327°
2026-05-04 19:33 34.37450 -118.64899 20773 ft 274 kts 326°
2026-05-04 19:33 34.39177 -118.65758 21448 ft 281 kts 324°
2026-05-04 19:33 34.41025 -118.66673 21934 ft 298 kts 325°
2026-05-04 19:33 34.43100 -118.67537 21912 ft 340 kts 338°
2026-05-04 19:34 34.45543 -118.68000 22023 ft 368 kts 341°
2026-05-04 19:34 34.48118 -118.68485 22077 ft 374 kts 341°
2026-05-04 19:34 34.50646 -118.68962 22080 ft 366 kts 341°
2026-05-04 19:34 34.53179 -118.69461 22097 ft 372 kts 340°
2026-05-04 19:35 34.55739 -118.69979 22102 ft 375 kts 341°
2026-05-04 19:35 34.58323 -118.70482 22085 ft 378 kts 341°
2026-05-04 19:35 34.60911 -118.70971 22141 ft 374 kts 341°
2026-05-04 19:35 34.63469 -118.71469 22135 ft 372 kts 341°
2026-05-04 19:36 34.66019 -118.71968 22249 ft 368 kts 341°
2026-05-04 19:36 34.68547 -118.72489 22663 ft 371 kts 340°
2026-05-04 19:36 34.71063 -118.73113 23787 ft 364 kts 332°
2026-05-04 19:36 34.73416 -118.74194 24553 ft 363 kts 322°
2026-05-04 19:37 34.75682 -118.75706 24797 ft 383 kts 317°
2026-05-04 19:37 34.78078 -118.77392 24922 ft 414 kts 319°
2026-05-04 19:37 34.80679 -118.79154 25196 ft 437 kts 320°
2026-05-04 19:37 34.83355 -118.80939 26078 ft 440 kts 320°
2026-05-04 19:38 34.86037 -118.82792 26752 ft 447 kts 319°
2026-05-04 19:38 34.88765 -118.84694 27535 ft 454 kts 318°
2026-05-04 19:38 34.91544 -118.86603 28231 ft 462 kts 319°
2026-05-04 19:38 34.94356 -118.88513 29193 ft 463 kts 318°
2026-05-04 19:39 34.97156 -118.90442 30223 ft 462 kts 317°
2026-05-04 19:39 34.99946 -118.92382 31118 ft 461 kts 317°
2026-05-04 19:39 35.02726 -118.94301 32048 ft 458 kts 317°
2026-05-04 19:39 35.05500 -118.96208 32929 ft 457 kts 318°
2026-05-04 19:40 35.08231 -118.98089 33762 ft 455 kts 317°
2026-05-04 19:40 35.10972 -118.99997 34529 ft 453 kts 318°
2026-05-04 19:40 35.13709 -119.01899 35229 ft 452 kts 318°
2026-05-04 19:40 35.16445 -119.03791 35939 ft 451 kts 319°
2026-05-04 19:41 35.19176 -119.05681 36625 ft 451 kts 320°
2026-05-04 19:41 35.21902 -119.07574 37221 ft 450 kts 321°
2026-05-04 19:41 35.24625 -119.09469 37798 ft 450 kts 321°
2026-05-04 19:41 35.27350 -119.11363 38354 ft 450 kts 321°
2026-05-04 19:42 35.30071 -119.13255 38840 ft 449 kts 322°
2026-05-04 19:42 35.32792 -119.15149 39254 ft 449 kts 322°
2026-05-04 19:42 35.35504 -119.17040 39647 ft 448 kts 322°
2026-05-04 19:42 35.38220 -119.18933 40035 ft 448 kts 322°
2026-05-04 19:43 35.40927 -119.20819 40395 ft 449 kts 323°
2026-05-04 19:43 35.43790 -119.22436 40746 ft 457 kts 332°
2026-05-04 19:43 35.46856 -119.23560 41106 ft 465 kts 341°
2026-05-04 19:43 35.50074 -119.24156 41450 ft 471 kts 348°
2026-05-04 19:44 35.53334 -119.24523 41788 ft 470 kts 348°
2026-05-04 19:44 35.56584 -119.24905 42125 ft 469 kts 348°
2026-05-04 19:44 35.59829 -119.25295 42486 ft 468 kts 349°
2026-05-04 19:44 35.63078 -119.25679 42812 ft 467 kts 349°
2026-05-04 19:45 35.66312 -119.26056 43072 ft 468 kts 349°
2026-05-04 19:45 35.72878 -119.26837 43064 ft 480 kts 349°
2026-05-04 19:46 35.79597 -119.27628 43087 ft 489 kts 349°
2026-05-04 19:46 35.86378 -119.28428 43072 ft 487 kts 349°
2026-05-04 19:47 35.93086 -119.29225 43069 ft 482 kts 349°
2026-05-04 19:47 35.99697 -119.30011 43069 ft 479 kts 349°
2026-05-04 19:48 36.06357 -119.30805 43077 ft 483 kts 349°
2026-05-04 19:48 36.13071 -119.31605 43087 ft 486 kts 349°
2026-05-04 19:49 36.19824 -119.32411 43087 ft 487 kts 349°
2026-05-04 19:49 36.26547 -119.33215 43084 ft 485 kts 349°
2026-05-04 19:50 36.33259 -119.34019 43078 ft 483 kts 349°
2026-05-04 19:50 36.39948 -119.34822 43077 ft 481 kts 349°
2026-05-04 19:51 36.46606 -119.35624 43084 ft 482 kts 350°
2026-05-04 19:51 36.54764 -119.36607 43075 ft 485 kts 350°
2026-05-04 19:52 36.68261 -119.38237 43065 ft 488 kts 350°
2026-05-04 19:52 36.81722 -119.39870 43060 ft 483 kts 350°
2026-05-04 19:53 36.95100 -119.41498 43040 ft 483 kts 350°
2026-05-04 19:53 37.08530 -119.43138 43033 ft 486 kts 350°
2026-05-04 19:54 37.22016 -119.44791 43022 ft 487 kts 350°
2026-05-04 19:54 37.35504 -119.46449 43004 ft 484 kts 350°
2026-05-04 19:55 37.48849 -119.48096 43006 ft 481 kts 350°
2026-05-04 19:55 37.62085 -119.49737 42989 ft 481 kts 350°
2026-05-04 19:56 37.75437 -119.51397 42977 ft 483 kts 351°
2026-05-04 19:56 37.88848 -119.53068 42954 ft 484 kts 351°
2026-05-04 19:57 38.02160 -119.54731 42924 ft 480 kts 351°
2026-05-04 19:57 38.15438 -119.56401 42915 ft 479 kts 351°
2026-05-04 19:58 38.28700 -119.58076 42890 ft 478 kts 351°
2026-05-04 19:58 38.41918 -119.59751 42900 ft 476 kts 351°
2026-05-04 19:59 38.52843 -119.61141 42899 ft 473 kts 352°
2026-05-04 19:59 38.65917 -119.62808 42894 ft 471 kts 352°
2026-05-04 20:00 38.78856 -119.64833 42935 ft 468 kts 349°
2026-05-04 20:00 38.93988 -119.67508 42985 ft 470 kts 350°
2026-05-04 20:01 39.04742 -119.69414 42983 ft 470 kts 350°
2026-05-04 20:01 39.17667 -119.71721 43017 ft 466 kts 350°
2026-05-04 20:02 39.30473 -119.74015 43010 ft 464 kts 350°
2026-05-04 20:02 39.43331 -119.76328 42973 ft 468 kts 351°
2026-05-04 20:03 39.56141 -119.78640 42977 ft 466 kts 351°
2026-05-04 20:03 39.68961 -119.80962 42977 ft 464 kts 351°
2026-05-04 20:04 39.81746 -119.83287 42953 ft 463 kts 351°
2026-05-04 20:04 39.94548 -119.85624 42872 ft 464 kts 351°
2026-05-04 20:05 40.07313 -119.87963 42826 ft 463 kts 351°
2026-05-04 20:05 40.20027 -119.90306 42813 ft 460 kts 351°
2026-05-04 20:06 40.32751 -119.92648 42807 ft 462 kts 351°
2026-05-04 20:06 40.45446 -119.95004 42812 ft 458 kts 351°
2026-05-04 20:07 40.57936 -119.97324 42809 ft 454 kts 351°
2026-05-04 20:07 40.70447 -119.99662 42818 ft 455 kts 351°
2026-05-04 20:08 40.83041 -120.02022 42831 ft 459 kts 351°
2026-05-04 20:08 40.95464 -120.05540 42843 ft 452 kts 348°
2026-05-04 20:09 41.07713 -120.09056 42843 ft 450 kts 348°
2026-05-04 20:09 41.19964 -120.12584 42849 ft 450 kts 348°
2026-05-04 20:10 41.32213 -120.16122 42863 ft 450 kts 348°
2026-05-04 20:10 41.44430 -120.19669 42881 ft 449 kts 349°
2026-05-04 20:11 41.56602 -120.23226 42852 ft 447 kts 349°
2026-05-04 20:11 41.68767 -120.26788 42855 ft 446 kts 349°
2026-05-04 20:12 41.80858 -120.30331 42859 ft 444 kts 349°
2026-05-04 20:12 41.92920 -120.33895 42903 ft 443 kts 349°
2026-05-04 20:13 42.04923 -120.37451 42951 ft 441 kts 349°
2026-05-04 20:13 42.16803 -120.40977 42963 ft 438 kts 349°
2026-05-04 20:14 42.28674 -120.44526 42871 ft 435 kts 349°
2026-05-04 20:14 42.40477 -120.48064 42875 ft 433 kts 349°
2026-05-04 20:15 42.52235 -120.51680 42879 ft 435 kts 348°
2026-05-04 20:15 42.64028 -120.55644 42886 ft 437 kts 348°
2026-05-04 20:16 42.75866 -120.59625 42873 ft 438 kts 348°
2026-05-04 20:16 42.87694 -120.63620 42860 ft 437 kts 348°
2026-05-04 20:17 42.99484 -120.67617 42868 ft 436 kts 348°
2026-05-04 20:17 43.11224 -120.71613 42873 ft 433 kts 348°
2026-05-04 20:18 43.22886 -120.75597 42864 ft 430 kts 348°
2026-05-04 20:18 43.34494 -120.79578 42866 ft 433 kts 348°
2026-05-04 20:19 43.46191 -120.83606 42872 ft 433 kts 348°
2026-05-04 20:19 43.57872 -120.87645 42877 ft 432 kts 348°
2026-05-04 20:20 43.69503 -120.91681 42874 ft 429 kts 348°
2026-05-04 20:20 43.81066 -120.95711 42877 ft 427 kts 348°
2026-05-04 20:21 43.92556 -120.99731 42899 ft 423 kts 349°
2026-05-04 20:21 44.09647 -121.05741 42939 ft 425 kts 349°
2026-05-04 20:22 44.21129 -121.09799 42934 ft 425 kts 348°
2026-05-04 20:22 44.32580 -121.13862 42861 ft 424 kts 349°
2026-05-04 20:23 44.44001 -121.17931 42855 ft 422 kts 349°
2026-05-04 20:23 44.55382 -121.22002 42855 ft 422 kts 349°
2026-05-04 20:24 44.66767 -121.26090 42853 ft 423 kts 349°
2026-05-04 20:24 44.78192 -121.30211 42865 ft 424 kts 349°
2026-05-04 20:25 44.89569 -121.34329 42857 ft 425 kts 349°
2026-05-04 20:25 45.01039 -121.38500 42869 ft 425 kts 349°
2026-05-04 20:26 45.12477 -121.42677 42879 ft 423 kts 349°
2026-05-04 20:26 45.23813 -121.46832 42887 ft 419 kts 349°
2026-05-04 20:27 45.35122 -121.50995 42888 ft 421 kts 349°
2026-05-04 20:27 45.46509 -121.55204 42892 ft 423 kts 349°
2026-05-04 20:28 45.57904 -121.59433 42881 ft 422 kts 349°
2026-05-04 20:28 45.69214 -121.63651 42914 ft 417 kts 349°
2026-05-04 20:29 45.76836 -121.66500 42903 ft 416 kts 348°
2026-05-04 20:29 45.82423 -121.68594 42905 ft 417 kts 348°
2026-05-04 20:30 45.88052 -121.70712 42903 ft 419 kts 348°
2026-05-04 20:30 45.93708 -121.72836 42893 ft 421 kts 348°
2026-05-04 20:31 45.99378 -121.74980 42902 ft 421 kts 348°
2026-05-04 20:31 46.05036 -121.77118 42905 ft 419 kts 348°
2026-05-04 20:32 46.10660 -121.79251 42919 ft 417 kts 348°
2026-05-04 20:32 46.16261 -121.81375 42919 ft 414 kts 348°
2026-05-04 20:33 46.21820 -121.83493 42908 ft 412 kts 348°
2026-05-04 20:33 46.27355 -121.85599 42906 ft 411 kts 348°
2026-05-04 20:34 46.32859 -121.87703 42925 ft 411 kts 348°
2026-05-04 20:34 46.38408 -121.89834 42907 ft 414 kts 348°
2026-05-04 20:35 46.43992 -121.91970 42925 ft 416 kts 348°
2026-05-04 20:35 46.49593 -121.94127 42929 ft 416 kts 348°
2026-05-04 20:36 46.55182 -121.96280 42931 ft 415 kts 348°
2026-05-04 20:36 46.60746 -121.98428 42926 ft 413 kts 348°
2026-05-04 20:37 46.66361 -121.99796 42940 ft 409 kts 354°
2026-05-04 20:37 46.71977 -122.01066 42936 ft 407 kts 354°
2026-05-04 20:38 46.77573 -122.02256 42924 ft 406 kts 354°
2026-05-04 20:38 46.83166 -122.03494 42941 ft 407 kts 354°
2026-05-04 20:39 46.88768 -122.04711 42942 ft 407 kts 354°
2026-05-04 20:39 46.94340 -122.05937 42937 ft 407 kts 354°
2026-05-04 20:40 46.99940 -122.07166 42934 ft 407 kts 354°
2026-05-04 20:40 47.05533 -122.08398 42937 ft 406 kts 354°
2026-05-04 20:41 47.11120 -122.09632 42872 ft 407 kts 354°
2026-05-04 20:41 47.13963 -122.10257 42336 ft 417 kts 354°
2026-05-04 20:41 47.16835 -122.10893 41775 ft 418 kts 354°
2026-05-04 20:42 47.19705 -122.11533 41221 ft 414 kts 354°
2026-05-04 20:42 47.22530 -122.12161 40675 ft 408 kts 354°
2026-05-04 20:42 47.25318 -122.12779 40155 ft 402 kts 354°
2026-05-04 20:42 47.28061 -122.13388 39631 ft 396 kts 354°
2026-05-04 20:43 47.30767 -122.13991 39112 ft 391 kts 354°
2026-05-04 20:43 47.33444 -122.14587 38594 ft 387 kts 354°
2026-05-04 20:43 47.36095 -122.15176 38056 ft 384 kts 354°
2026-05-04 20:43 47.38743 -122.15766 37517 ft 387 kts 353°
2026-05-04 20:44 47.41433 -122.16367 37003 ft 396 kts 353°
2026-05-04 20:44 47.43252 -122.16773 36655 ft 402 kts 353°
2026-05-04 20:44 47.46045 -122.17398 36119 ft 409 kts 353°
2026-05-04 20:44 47.48864 -122.18032 35577 ft 411 kts 353°
2026-05-04 20:45 47.51694 -122.18668 35033 ft 411 kts 353°
2026-05-04 20:45 47.54519 -122.19301 34492 ft 412 kts 353°
2026-05-04 20:45 47.57355 -122.19937 33945 ft 413 kts 353°
2026-05-04 20:45 47.60204 -122.20579 33387 ft 413 kts 353°
2026-05-04 20:46 47.63054 -122.21221 32822 ft 416 kts 353°
2026-05-04 20:46 47.65926 -122.21869 32271 ft 418 kts 352°
2026-05-04 20:46 47.68816 -122.22522 31716 ft 422 kts 352°
2026-05-04 20:46 47.71733 -122.23181 31160 ft 427 kts 352°
2026-05-04 20:47 47.74680 -122.23848 30597 ft 431 kts 352°
2026-05-04 20:47 47.77662 -122.24524 30018 ft 434 kts 352°
2026-05-04 20:47 47.80608 -122.25192 29418 ft 432 kts 352°
2026-05-04 20:47 47.83597 -122.25871 28857 ft 425 kts 352°
2026-05-04 20:48 47.86468 -122.26524 28308 ft 419 kts 352°
2026-05-04 20:48 47.89333 -122.27176 27759 ft 415 kts 352°
2026-05-04 20:48 47.92185 -122.27835 27214 ft 414 kts 351°
2026-05-04 20:48 47.95010 -122.28641 26671 ft 413 kts 349°
2026-05-04 20:49 47.97822 -122.29468 26127 ft 411 kts 349°
2026-05-04 20:49 48.00633 -122.30281 25584 ft 409 kts 349°
2026-05-04 20:49 48.03414 -122.31078 25047 ft 405 kts 349°
2026-05-04 20:49 48.06173 -122.31875 24500 ft 402 kts 349°
2026-05-04 20:50 48.08913 -122.32671 23987 ft 400 kts 349°
2026-05-04 20:50 48.11631 -122.33460 23436 ft 397 kts 349°
2026-05-04 20:50 48.14324 -122.34242 22884 ft 392 kts 349°
2026-05-04 20:50 48.16990 -122.35017 22369 ft 388 kts 349°
2026-05-04 20:51 48.19631 -122.35785 21858 ft 386 kts 349°
2026-05-04 20:51 48.22268 -122.36553 21353 ft 385 kts 349°
2026-05-04 20:51 48.24863 -122.37310 20851 ft 385 kts 349°
2026-05-04 20:51 48.27492 -122.38078 20340 ft 383 kts 349°
2026-05-04 20:52 48.30086 -122.38838 19827 ft 378 kts 349°
2026-05-04 20:52 48.33966 -122.39971 19077 ft 372 kts 349°
2026-05-04 20:52 48.36493 -122.40710 18596 ft 369 kts 349°
2026-05-04 20:52 48.39016 -122.41451 18087 ft 368 kts 348°
2026-05-04 20:53 48.41522 -122.42188 17586 ft 366 kts 348°
2026-05-04 20:53 48.44021 -122.42921 17055 ft 366 kts 348°
2026-05-04 20:53 48.46517 -122.43656 16579 ft 364 kts 348°
2026-05-04 20:53 48.48992 -122.44385 16101 ft 361 kts 348°
2026-05-04 20:54 48.51429 -122.45102 15632 ft 352 kts 348°
2026-05-04 20:54 48.53808 -122.45803 15175 ft 344 kts 348°
2026-05-04 20:54 48.56143 -122.46494 14729 ft 340 kts 348°
2026-05-04 20:54 48.58459 -122.47179 14283 ft 339 kts 348°
2026-05-04 20:55 48.60747 -122.47855 13851 ft 340 kts 349°
2026-05-04 20:55 48.63097 -122.48550 13358 ft 340 kts 349°
2026-05-04 20:55 48.65381 -122.49227 12911 ft 337 kts 348°
2026-05-04 20:55 48.67666 -122.49959 12466 ft 335 kts 345°
2026-05-04 20:56 48.69831 -122.51236 12022 ft 334 kts 334°
2026-05-04 20:56 48.71788 -122.53103 11674 ft 331 kts 323°
2026-05-04 20:56 48.73467 -122.55467 11411 ft 329 kts 313°
2026-05-04 20:56 48.74893 -122.58194 11146 ft 331 kts 309°
2026-05-04 20:57 48.76306 -122.60956 10875 ft 332 kts 309°
2026-05-04 20:57 48.77730 -122.63720 10601 ft 332 kts 309°
2026-05-04 20:57 48.79145 -122.66478 10330 ft 331 kts 309°
2026-05-04 20:57 48.80551 -122.69229 10055 ft 329 kts 309°
2026-05-04 20:58 48.81948 -122.71960 9780 ft 327 kts 309°
2026-05-04 20:58 48.83338 -122.74682 9496 ft 325 kts 309°
2026-05-04 20:58 48.84721 -122.77393 9223 ft 324 kts 309°
2026-05-04 20:58 48.86101 -122.80100 8957 ft 323 kts 309°
2026-05-04 20:59 48.87473 -122.82792 8690 ft 322 kts 307°
2026-05-04 20:59 48.88817 -122.85447 8408 ft 293 kts 308°
2026-05-04 20:59 48.90059 -122.87883 8183 ft 294 kts 308°
2026-05-04 20:59 48.91282 -122.90284 7947 ft 278 kts 308°
2026-05-04 21:00 48.92429 -122.92548 7606 ft 267 kts 308°
2026-05-04 21:00 48.93588 -122.94711 7185 ft 261 kts 314°
2026-05-04 21:00 48.95014 -122.96368 6781 ft 256 kts 329°
2026-05-04 21:00 48.96641 -122.97424 6374 ft 254 kts 343°
2026-05-04 21:01 48.98378 -122.97835 5961 ft 252 kts 357°
2026-05-04 21:01 49.00087 -122.97582 5861 ft 241 kts 11°
2026-05-04 21:01 49.01670 -122.96754 5852 ft 244 kts 25°
2026-05-04 21:01 49.03132 -122.95331 5857 ft 254 kts 36°
2026-05-04 21:02 49.04536 -122.93664 5873 ft 258 kts 36°
2026-05-04 21:02 49.05904 -122.91885 5864 ft 259 kts 46°
2026-05-04 21:02 49.06892 -122.89596 5854 ft 260 kts 63°
2026-05-04 21:02 49.07431 -122.86944 5649 ft 264 kts 80°
2026-05-04 21:03 49.07491 -122.84170 5456 ft 261 kts 91°
2026-05-04 21:03 49.07452 -122.81425 5254 ft 256 kts 90°
2026-05-04 21:03 49.07425 -122.78731 5056 ft 252 kts 90°
2026-05-04 21:03 49.07419 -122.76082 4839 ft 250 kts 86°
2026-05-04 21:04 49.07847 -122.73552 4568 ft 246 kts 60°
2026-05-04 21:04 49.09053 -122.71800 4298 ft 238 kts 26°
2026-05-04 21:04 49.10606 -122.71404 4086 ft 222 kts 351°
2026-05-04 21:04 49.11928 -122.72409 3894 ft 209 kts 315°
2026-05-04 21:05 49.12785 -122.74106 3851 ft 194 kts 304°
2026-05-04 21:05 49.13275 -122.75940 3847 ft 183 kts 291°
2026-05-04 21:05 49.13893 -122.77648 3855 ft 190 kts 298°
2026-05-04 21:05 49.14302 -122.79598 3871 ft 200 kts 281°
2026-05-04 21:06 49.14576 -122.81806 3874 ft 221 kts 281°
2026-05-04 21:06 49.14848 -122.84176 3869 ft 229 kts 278°
2026-05-04 21:06 49.15113 -122.86581 3747 ft 231 kts 279°
2026-05-04 21:06 49.15396 -122.88990 3475 ft 229 kts 279°
2026-05-04 21:07 49.15658 -122.91358 3181 ft 225 kts 279°
2026-05-04 21:07 49.15931 -122.93695 2889 ft 221 kts 279°
2026-05-04 21:07 49.16185 -122.95985 2606 ft 215 kts 278°
2026-05-04 21:07 49.16442 -122.98194 2334 ft 208 kts 279°
2026-05-04 21:08 49.16689 -123.00321 2064 ft 201 kts 279°
2026-05-04 21:08 49.16918 -123.02409 1789 ft 187 kts 278°
2026-05-04 21:08 49.17130 -123.04284 1551 ft 172 kts 279°
2026-05-04 21:08 49.17337 -123.06026 1341 ft 162 kts 278°
2026-05-04 21:09 49.17514 -123.07687 1123 ft 155 kts 278°
2026-05-04 21:09 49.17694 -123.09217 951 ft 138 kts 279°
2026-05-04 21:09 49.17844 -123.10552 787 ft 127 kts 276°
2026-05-04 21:09 49.17976 -123.11817 627 ft 116 kts 276°
2026-05-04 21:10 49.18115 -123.13038 460 ft 115 kts 276°
2026-05-04 21:10 49.18258 -123.14213 324 ft 112 kts 278°
2026-05-04 21:10 49.18399 -123.15447 157 ft 120 kts 275°
2026-05-04 21:10 49.18540 -123.16680 27 ft 111 kts 277°
2026-05-04 21:11 49.18641 -123.17634 21 ft 68 kts 280°
2026-05-04 21:11 49.18695 -123.18082 18 ft 15 kts 268°
2026-05-04 21:11 49.18597 -123.18159 19 ft 20 kts 191°
2026-05-04 21:11 49.18510 -123.18180 18 ft 0 kts 158°
2026-05-04 21:12 49.18510 -123.18179 18 ft 1 kts 145°
2026-05-04 21:12 49.18509 -123.18178 18 ft 0 kts 133°
2026-05-04 21:12 49.18510 -123.18166 17 ft 5 kts 84°
2026-05-04 21:12 49.18503 -123.18073 15 ft 11 kts 99°
2026-05-04 21:13 49.18488 -123.17936 20 ft 15 kts 99°
2026-05-04 21:13 49.18469 -123.17778 18 ft 14 kts 100°
2026-05-04 21:13 49.18453 -123.17641 18 ft 10 kts 100°
2026-05-04 21:13 49.18439 -123.17515 18 ft 14 kts 98°
2026-05-04 21:14 49.18422 -123.17377 18 ft 10 kts 107°
2026-05-04 21:14 49.18366 -123.17295 17 ft 13 kts 147°
2026-05-04 21:14 49.18301 -123.17223 19 ft 15 kts 144°
2026-05-04 21:14 49.18266 -123.17154 17 ft 8 kts 97°
2026-05-04 21:15 49.18256 -123.17077 20 ft 7 kts 128°
2026-05-04 21:15 49.18233 -123.17078 17 ft 5 kts 187°
2026-05-04 21:15 49.18214 -123.17080 17 ft 1 kts 185°